{"data":{"norad_id":43633,"intl_designator":"2018-074B","name":"HORIZONS-3E","alt_names":[],"object_type":"PAYLOAD","status":"ACTIVE","operator":null,"country":"ITSO","launch_date":"2018-09-25","launch_site_code":"FRGUI","launch_vehicle":null,"mission":null,"orbit_class":"UNKNOWN","rcs_meters":null,"size_class":null,"mass_kg":null,"dimensions":null,"purposes":["comms"],"wikipedia_slug":null,"has_3d_model":false,"image_url":null,"decayed_at":null,"tle_current":{"epoch":"2026-05-25T02:50:05.542080Z","epoch_age_seconds":71755,"freshness":"FRESH","line1":"1 43633U 18074B   26145.11811970 -.00000034  00000+0  00000+0 0  9991","line2":"2 43633   0.0049  68.4194 0000776 228.0182 157.7772  1.00269046 28115","mean_motion":1.00269046,"eccentricity":7.76e-5,"inclination_deg":0.0049,"raan_deg":68.4194,"arg_perigee_deg":228.0182,"mean_anomaly_deg":157.7772,"bstar":0,"rev_number":2811,"period_min":1436.1361331791,"perigee_km":35784.090777012,"apogee_km":35790.634862584,"semimajor_km":42165.499819798,"source":"CELESTRAK","updated_at":"2026-05-25T13:38:14.336870Z"}}}